Regional Weather Roundup
Issued by NWS Newport/Morehead, NC

Current Version | Previous Version | Graphics & Text | Print | Product List | Glossary On
Versions: 1 2 3 4 5 6 7 8 9 10 11 12 13 14 15 16 17 18 19 20 21 22 23 24 25 26 27 28 29 30 31 32 33 34 35 36 37 38 39 40 41 42 43 44 45 46 47 48 49 50
000 ASUS42 KMHX 240313 RWRMHX WEATHER ROUNDUP FOR EASTERN NORTH CAROLINA NATIONAL WEATHER SERVICE NEWPORT/MOREHEAD CITY NC 1100 PM EDT THU MAR 23 2017 NOTE: "FAIR" INDICATES FEW OR NO CLOUDS BELOW 12,000 FEET WITH NO SIGNIFICANT WEATHER AND/OR OBSTRUCTIONS TO VISIBILITY NCZ015>017-031-032-045>047-102-103-240400- NORTH COAST CITY SKY/WX TMP DP RH WIND PRES REMARKS EDENTON CLEAR 38 30 73 SE3 30.61R ELIZABETH CITY CLEAR 35 28 75 E6 30.60F KITTY HAWK NOT AVBL MANTEO CLEAR 35 27 71 E3 30.60F $$ NCZ045>047-081-094-103-104-240400- CENTRAL COAST CITY SKY/WX TMP DP RH WIND PRES REMARKS FRISCO CLEAR 40 31 70 NE5 30.59S $$ NCZ095-097-098-100-101-240400- SOUTHERN COAST CITY SKY/WX TMP DP RH WIND PRES REMARKS BEAUFORT CLEAR 41 32 70 NE6 30.57S CEDAR ISLAND NOT AVBL JACKSONVILLE CLEAR 42 33 70 E9 30.56S PINEY ISLAND CLEAR N/A N/A N/A E10 30.58S WILMINGTON CLEAR 41 32 70 NE3 30.55S $$ NCZ011>013-027>030-043-044-078>080-089-090>093-098-240400- COASTAL PLAIN CITY SKY/WX TMP DP RH WIND PRES REMARKS AHOSKIE N/A 35 28 74 SE3 30.59S CLINTON CLEAR 43 34 70 CALM 30.57R ELIZABETHTOWN CLEAR 44 34 68 CALM 30.55R GOLDSBORO CLEAR 42 32 67 E6 30.56R GREENVILLE CLEAR 41 32 70 SE3 30.57S HAVELOCK CLEAR 36 30 79 E6 30.58F KENANSVILLE CLEAR 37 32 81 CALM 30.57R KINSTON CLEAR 42 32 69 CALM 30.59R NEW BERN CLEAR 41 34 76 E5 30.59S RICHLANDS CLEAR 37 29 72 NE5 30.57R ROCKY MOUNT CLEAR 39 28 64 CALM 30.57R WASHINGTON NOT AVBL WHITEVILLE CLEAR 45 32 60 CALM 30.53S $$ AMZ130-135-150-152-154-156-158-170-250-252-270-ANZ085-086-088-633-658-670-240400- MARINE OBSERVATIONS STATION/POSITION TIME TEMP WIND PRES WAVE SWELL AIR SEA DIR/SP/G HT/PER HT/PER (UTC) (F) (DEG/KT/KT) (MB) (FT/S) (FT/S) CHESAPEAKE LIGHT NOT AVBL 64 E VA BEACH 0250 42 48 70/ 6/ 8 1036.0 4/ 8 3/ 8 DUCK 0248 39 48 110/ 7/ 10 1035.7 2 E DUCK 0300 47 N/A 3/ 6 OREGON INLET 0242 40 49 50/ 5/ 8 1036.2 13E OREGON INLT NOT AVBL HATTERAS CG 0248 42 52 40/ 7/ 10 1035.4 DIAMOND BUOY 0250 51 71 40/ 8/ 14 1035.3 8/11 7/11 CAPE LOOKOUT 0300 45 20/ 10/ 11 1034.5 BEAUFORT LAB 0248 41 52 30/ 5/ 6 1034.2 30 SE NEW RVR IN 0208 53 60/ 12/ 17 1034.4 30 SE NEW RVR IN 0243 68 N/A 4/11 2/11 27 SE WRIGHTSVLE 0208 53 61 90/ 14/ 19 1033.3 5 SE WRIGHTSVLE 0208 51 56 100/ 14/ 21 1034.2 225 S CAPE HAT 0250 62 72 40/ 17/ 21 1032.1 7/10 5/10 41 SE CHARLESTON 0250 63 71 70/ 19/ 23 1030.9 6/ 7 3/ 7 $$

USA.gov is the U.S. government's official web portal to all federal, state and local government web resources and services.